Location: Malcolm X Square
(37.7810°N, 122.4297°W)
Time: 22:16:56
(UTC+00:00)

IRS-1D - Pass Details

Date: 13 April 2024
Orbit: 739 x 813 km, 98.8° (Epoch: 21 May)

Event Time Altitude Azimuth Distance (km) Brightness Sun altitude
Rises 12:29:24 0° 4° (N) 3,228 7.1 -13.4°
Reaches altitude 10° 12:31:50 10° 356° (N) 2,310 6.2 -13.0°
Maximum altitude 12:36:28 37° 290° (WNW) 1,194 4.1 -12.2°
Enters shadow 12:40:36 13° 227° (SW) 2,134 5.2 -11.4°
